#timestamp,LO_Frequency,Hit,StdDev 
1657184415.2,286047001.4,N
1657184435.9,286047004.3,Y
1657184455.7,286047002.6,P
1657184475.6,286047002.5,N
1657184495.4,286047000.0,N
1657184515.2,286047002.1,N
1657184535.1,286047001.6,N
1657184536.0,286047001.6,N
1657184555.8,286047002.6,N
1657184575.7,286046999.8,N
1657184595.5,286047001.1,N
1657184615.3,286047001.0,N
1657184635.2,286046999.8,N
1657184655.0,286047000.0,N
1657184655.9,286047000.0,N
1657184675.7,286047000.4,N
1657184695.6,286047002.7,N
1657184715.4,286046999.8,N
1657184735.3,286047000.2,N
1657184755.1,286047001.6,N
1657184756.0,286047001.6,N
1657184775.8,286047002.3,N
1657184795.7,286047001.9,N
1657184815.5,286047002.0,N
1657184835.3,286047004.3,Y
1657184855.2,286047003.6,P
1657184875.0,286047005.8,P
1657184875.9,286047005.8,P
1657184895.8,286047006.0,Y
1657184915.6,286047000.4,P
1657184935.4,286047000.3,N
1657184955.3,286047001.0,N
1657184975.1,286047000.6,N
1657184995.8,286047000.9,N
1657185015.7,286047000.2,N
1657185035.5,286047002.1,N
1657185055.4,286047002.1,N
1657185075.2,286047002.5,N
1657185095.0,286047001.9,N
1657185095.9,286047001.9,N
1657185115.8,286047001.7,N
1657185135.6,286047004.2,Y
1657185155.4,286047002.3,P
1657185175.3,286046998.2,P
1657185195.1,286047001.0,N
1657185215.9,286047000.0,N
1657185235.7,286046998.5,N
1657185255.5,286047000.7,N
1657185275.4,286046998.4,N
1657185295.2,286047000.0,N
1657185315.0,286047000.1,N
1657185315.9,286047000.1,N
1657185335.8,286047002.3,N
1657185355.6,286046999.8,N
1657185375.5,286047001.4,N
1657185395.3,286047005.6,Y
1657185415.1,286047003.9,P
1657185435.9,286047003.5,N
1657185455.7,286047001.8,N
1657185475.6,286047001.5,N
1657185495.4,286047001.5,N
1657185515.2,286047002.5,N
1657185535.1,286047000.0,N
1657185536.0,286047000.0,N
1657185555.8,286047000.7,N
1657185575.7,286046999.3,N
1657185595.5,286046999.4,N
1657185615.3,286046998.7,N
1657185635.2,286046998.8,N
1657185655.0,286046999.0,N
1657185655.9,286046999.0,N
1657185675.7,286046996.9,N
1657185695.6,286046996.9,N
1657185715.4,286046996.7,N
1657185735.3,286046997.0,N
1657185755.1,286046995.7,N
1657185756.0,286046995.7,N
1657185775.8,286046996.1,N
1657185795.7,286046993.7,N
1657185815.5,286046991.8,Y
1657185835.4,286046994.7,P
1657185855.2,286046994.2,N
1657185875.0,286046996.4,N
1657185875.9,286046996.4,N
1657185895.8,286046995.5,N
1657185915.6,286046996.1,N
1657185935.4,286046993.6,Y
1657185955.3,286047001.1,P
1657185975.1,286047001.0,N
1657185995.9,286046998.6,N
1657186015.7,286046996.5,N
1657186035.5,286046999.1,N
1657186055.4,286046999.0,N
1657186075.2,286046998.4,N
1657186095.0,286047000.2,N
1657186095.9,286047000.2,N
1657186115.8,286047002.7,N
1657186135.6,286047002.2,N
1657186155.4,286047003.4,N
1657186175.3,286047001.5,N
1657186195.1,286047000.5,N
1657186215.9,286046999.9,N
1657186235.7,286047000.3,N
1657186255.5,286047000.2,N
1657186275.4,286046998.5,N
1657186295.2,286047001.0,N
1657186315.0,286047001.0,N
1657186315.9,286047001.0,N
1657186335.8,286046999.0,N
1657186355.6,286046998.6,N
1657186375.5,286046999.0,N
1657186395.3,286046999.6,N
1657186415.1,286046998.2,N
1657186435.9,286046999.1,N
1657186455.7,286046999.0,N
1657186475.5,286046999.1,N
1657186495.4,286046998.8,N
1657186515.2,286046999.2,N
1657186535.1,286046999.6,N
1657186536.0,286046999.6,N
1657186555.8,286046999.6,N
1657186575.6,286046999.6,N
1657186595.5,286046996.9,N
1657186615.3,286046996.5,N
1657186635.1,286046996.9,N
1657186655.9,286046997.1,N
1657186675.7,286046997.3,N
1657186695.6,286046997.3,N
1657186715.4,286046996.9,N
1657186735.2,286046999.3,N
1657186755.1,286047001.0,N
1657186756.0,286047001.0,N
1657186775.8,286047000.1,N
1657186795.6,286046998.2,N
1657186815.5,286046996.9,N
1657186835.3,286046999.2,N
1657186855.1,286046998.4,N
1657186875.9,286046999.5,N
1657186895.7,286046997.2,N
1657186915.6,286046997.2,N
1657186935.4,286046996.6,N
1657186955.2,286046999.2,N
1657186975.1,286046996.5,N
1657186976.0,286046996.5,N
1657186995.8,286047000.1,N
1657187015.6,286047006.0,Y
1657187035.5,286047005.1,P
1657187055.3,286047021.4,P
1657187075.2,286047020.0,N
1657187095.9,286047016.4,N
1657187115.7,286047013.7,N
1657187135.6,286047012.1,N
1657187155.4,286047008.3,N
1657187175.2,286047006.8,N
1657187195.1,286047005.4,N
1657187196.0,286047005.4,N
1657187215.8,286047003.4,N
1657187235.7,286047004.3,N
1657187255.5,286047001.5,N
1657187275.3,286047004.0,N
1657187295.2,286047002.5,N
1657187315.0,286047002.1,N
1657187315.9,286047002.1,N
1657187335.7,286046999.8,N
1657187355.6,286047000.6,N
1657187375.4,286047000.7,N
1657187395.3,286046998.2,N
1657187415.1,286047001.2,N
1657187435.8,286047000.8,N
1657187455.7,286047000.3,N
1657187475.5,286046998.6,N
1657187495.3,286047000.7,N
1657187515.2,286046998.7,N
1657187535.0,286046998.4,N
1657187535.9,286046998.4,N
1657187555.8,286047001.2,N
1657187575.6,286046998.8,N
1657187595.4,286046996.9,N
1657187615.3,286046996.9,N
1657187635.1,286046999.6,N
1657187655.8,286046998.1,N
1657187675.7,286047001.2,N
1657187695.5,286047000.0,N
1657187715.4,286047000.4,N
1657187735.2,286046998.6,N
1657187755.0,286046999.0,N
1657187755.9,286046999.0,N
1657187775.8,286046998.6,N
1657187795.6,286047000.6,N
1657187815.5,286047001.9,N
1657187835.3,286047002.1,N
1657187855.1,286047001.9,N
1657187875.9,286047002.1,N
1657187895.7,286047001.5,N
1657187915.5,286047002.0,N
1657187935.4,286047001.4,N
1657187955.2,286047003.4,N
1657187975.1,286047004.0,N
1657187976.0,286047004.0,N
1657187995.8,286047003.3,N
